[[{"header":{"parameterUnit":"m.s-1","parameterCategory":1,"la1":30.2991,"la2":30.254,"lo1":-89.0895,"lo2":-89.0444,"dy":0.0017,"dx":0.0017,"nx":28,"ny":28,"refTime":"2024-12-19T03:00:00:Z","depth":0,"parameterNumber":2,"parameterNumberName":"U-component_of_WINDS"},"data":[0,0,0,0,0,0,0,0,0,0,0,0,0,0,0,0,0,0,0,0,0,0,0,0,0,0,0,0,0,0,0,0,0,0,0,0,0,0,0,0,0,0,0,0,0,0,0,0,0,0,0,0,0,0,0,0,0,0,0.3885,0.3885,0,0.3859,0.3859,0.3859,0.3824,0.3823,0.3823,0.3822,0.3798,0.3798,0.3798,0,0,0,0,0,0,0,0,0,0,0,0,0,0.3909,0.3909,0.3885,0.3885,0.3885,0.3859,0.3859,0.3859,0.3824,0.3823,0.3822,0.3822,0.3798,0.3798,0.3798,0,0,0,0,0,0,0,0,0,0,0,0,0,0.3893,0.3909,0.3885,0.3864,0.3862,0.386,0.3859,0.3859,0.3824,0.3823,0.3822,0.3821,0.3798,0.3798,0.3798,0.3814,0,0,0.3797,0.3797,0,0,0,0,0,0,0,0,0.3894,0.3892,0.3868,0.3866,0.3863,0.3844,0.3858,0.3844,0.3824,0.3839,0.3822,0.3821,0.3814,0.3813,0.381,0.3813,0.3812,0.3797,0.3797,0.3797,0.3797,0,0,0,0,0,0,0,0.3895,0.3893,0.3875,0.3867,0.3865,0.3857,0.3854,0.3856,0.3832,0.3837,0.3835,0.3832,0.3813,0.381,0.3809,0.3812,0.3797,0.3797,0.3797,0.3797,0.3832,0.3833,0,0,0,0,0,0,0.3899,0.3894,0.3876,0.3874,0.3876,0.3858,0.3854,0.3851,0.3832,0.3828,0.3833,0.383,0.3811,0.3809,0.3808,0.3829,0.3797,0.3797,0.3797,0.3831,0.3833,0.3834,0,0,0,0,0,0,0.3899,0.3897,0.3877,0.3883,0.388,0.3858,0.3855,0.3851,0.3848,0.3828,0.3824,0.3834,0.381,0.3808,0.3814,0.3828,0.3797,0.3797,0.383,0.3832,0.3833,0.387,0,0,0,0,0,0,0.39,0.3898,0.3903,0.3884,0.388,0.3882,0.3856,0.3851,0.3848,0.3844,0.3828,0.3825,0.3809,0.3814,0.3814,0.3827,0.3797,0.3829,0.3831,0.3833,0.3868,0.3873,0.3877,0,0,0,0,0,0.3901,0.3914,0.3903,0.3901,0.3886,0.3883,0.3881,0.3862,0.3849,0.3855,0.3843,0.3825,0.3826,0.3815,0.3814,0.3828,0.3828,0.383,0.3833,0.3866,0.3872,0.3877,0,0,0,0,0,0,0.3935,0.3911,0.3899,0.3905,0.3897,0.3877,0.3884,0.3869,0.3864,0.3861,0.3838,0.3835,0.3845,0.3836,0.3825,0.3845,0.3825,0.3827,0.385,0.3856,0.3861,0.3863,0.3796,0,0,0,0,0,0.3943,0.3942,0.3921,0.3929,0.3925,0.3906,0.3903,0.389,0.388,0.3876,0.3864,0.3856,0.3855,0.3855,0.3852,0.3866,0.3864,0.3875,0.388,0.3884,0.3887,0.3898,0.3903,0.3841,0.3841,0.3841,0,0,0.396,0.3947,0.3947,0.3936,0.3927,0.3929,0.3902,0.3904,0.3905,0.3877,0.3882,0.3873,0.3863,0.3874,0.3878,0.3868,0.3904,0.3887,0.389,0.3891,0.3901,0.3906,0.3912,0.3843,0.3843,0.3842,0,0,0.3992,0.3981,0.3988,0.398,0.3968,0.3955,0.3957,0.394,0.3933,0.3938,0.3918,0.392,0.3917,0.3912,0.3909,0.3943,0.3928,0.3942,0.3968,0.3979,0.3984,0.3988,0.4003,0.4009,0.3945,0.3945,0.3945,0,0.4015,0.4015,0.3993,0.3997,0.3994,0.3968,0.3977,0.3971,0.3959,0.3958,0.3946,0.3945,0.3936,0.3947,0.3956,0.3953,0.3957,0.3945,0.3984,0.3989,0.3992,0.4007,0.4012,0.3947,0.3947,0.3947,0.3946,0,0.4045,0.4046,0.4053,0.4043,0.404,0.4046,0.4028,0.4028,0.4016,0.4005,0.4012,0.4001,0.3998,0.3999,0.3986,0.4009,0.4004,0.3988,0.3968,0.4001,0.4014,0.4019,0.395,0.3949,0.3949,0.3948,0,0,0.4097,0.4076,0.408,0.4076,0.4062,0.4063,0.4069,0.4065,0.4068,0.4061,0.4068,0.4068,0.4054,0.4051,0.4038,0.4047,0.4079,0.4031,0.403,0.4043,0.4108,0.4122,0.4128,0.4068,0.4069,0.407,0.411,0,0.4128,0.4137,0.4119,0.4133,0.4135,0.4112,0.4118,0.4112,0.4102,0.4104,0.4094,0.4096,0.4076,0.4075,0.4083,0.4073,0.4092,0.407,0.4077,0.4078,0.4083,0.4135,0.4148,0.4186,0.4115,0.4116,0.4116,0,0.4165,0.4161,0.4175,0.4164,0.4164,0.4169,0.4167,0.4168,0.4161,0.4154,0.4152,0.4137,0.4145,0.4124,0.4137,0.4122,0.4124,0.412,0.4121,0.4123,0.4101,0.4141,0.4198,0.4205,0.4124,0.4123,0.4123,0,0.4205,0.4203,0.4212,0.421,0.4195,0.4201,0.4195,0.4187,0.4187,0.4185,0.4186,0.4185,0.4185,0.4186,0.4172,0.4158,0.4188,0.4165,0.4185,0.4186,0.4194,0.4194,0.4255,0.4191,0.4191,0.4191,0.4191,0,0.4243,0.4253,0.4231,0.4237,0.4249,0.4229,0.4242,0.4235,0.4229,0.4235,0.4214,0.4221,0.4201,0.4206,0.4195,0.4209,0.4209,0.4205,0.4203,0.4209,0.421,0.4211,0.4209,0.4192,0.4192,0.4192,0.4191,0,0.429,0.4275,0.4284,0.427,0.4267,0.4277,0.4267,0.4273,0.4263,0.4271,0.4272,0.4257,0.4262,0.4248,0.4251,0.4244,0.4266,0.4257,0.4268,0.4267,0.4289,0.4288,0.4355,0.4365,0.4292,0.4292,0.4293,0,0.4316,0.4324,0.4312,0.4314,0.431,0.4314,0.4314,0.4297,0.4298,0.4293,0.4301,0.4305,0.4307,0.4317,0.4307,0.431,0.4304,0.4327,0.4304,0.4311,0.4308,0.4309,0.4312,0.4333,0.4334,0.4334,0.4335,0,0.4365,0.4358,0.4359,0.4359,0.4361,0.436,0.4357,0.4361,0.4342,0.4346,0.4351,0.4353,0.4357,0.4362,0.4363,0.436,0.4346,0.4342,0.4348,0.4355,0.4362,0.4362,0.4284,0.4341,0.434,0.434,0.434,0.4339,0.4405,0.4412,0.4406,0.4409,0.4405,0.4405,0.4411,0.4403,0.4406,0.4408,0.4397,0.4406,0.4403,0.4403,0.4402,0.441,0.4399,0.4406,0.4409,0.4411,0.4417,0.4359,0.441,0.4409,0.4409,0.4409,0.4409,0,0.4455,0.4451,0.4454,0.4452,0.4456,0.4441,0.4439,0.4443,0.4451,0.4448,0.4451,0.4459,0.4465,0.4457,0.4462,0.447,0.4465,0.4473,0.4473,0.4474,0.4424,0.442,0.4478,0.4478,0.4478,0.4478,0.4478,0.4478,0.4482,0.4495,0.4488,0.45,0.4496,0.4503,0.4504,0.4504,0.4503,0.4513,0.4517,0.4512,0.4509,0.4514,0.452,0.4517,0.4522,0.4533,0.4529,0.4483,0.4476,0.447,0.4467,0.4533,0.4533,0.4579,0.4579,0.4579]},{"header":{"parameterUnit":"m.s-1","parameterCategory":1,"la1":30.2991,"la2":30.254,"lo1":-89.0895,"lo2":-89.0444,"dy":0.0017,"dx":0.0017,"nx":28,"ny":28,"refTime":"2024-12-19T03:00:00:Z","depth":0,"parameterNumber":3,"parameterNumberName":"V-component_of_WINDS"},"data":[0,0,0,0,0,0,0,0,0,0,0,0,0,0,0,0,0,0,0,0,0,0,0,0,0,0,0,0,0,0,0,0,0,0,0,0,0,0,0,0,0,0,0,0,0,0,0,0,0,0,0,0,0,0,0,0,0,0,-1.8034,-1.8034,0,-1.7999,-1.7999,-1.7999,-1.7978,-1.7978,-1.7978,-1.7978,-1.794,-1.7939,-1.7938,0,0,0,0,0,0,0,0,0,0,0,0,0,-1.808,-1.8079,-1.8034,-1.8034,-1.8033,-1.8,-1.7999,-1.7999,-1.7978,-1.7978,-1.7978,-1.7978,-1.794,-1.7939,-1.7938,0,0,0,0,0,0,0,0,0,0,0,0,0,-1.8054,-1.8079,-1.8034,-1.8019,-1.8018,-1.8,-1.7999,-1.7998,-1.7978,-1.7978,-1.7978,-1.7978,-1.794,-1.7939,-1.7937,-1.7931,0,0,-1.7933,-1.7932,0,0,0,0,0,0,0,0,-1.8055,-1.8052,-1.8022,-1.802,-1.8018,-1.7993,-1.8001,-1.7976,-1.7978,-1.7993,-1.7978,-1.7978,-1.7957,-1.7954,-1.7948,-1.7929,-1.7927,-1.7933,-1.7932,-1.7931,-1.7931,0,0,0,0,0,0,0,-1.8057,-1.8054,-1.802,-1.8021,-1.8019,-1.8013,-1.8009,-1.7996,-1.7976,-1.7992,-1.799,-1.7987,-1.7956,-1.7949,-1.7947,-1.7927,-1.7933,-1.7932,-1.7931,-1.793,-1.7899,-1.7899,0,0,0,0,0,0,-1.8062,-1.8055,-1.8021,-1.8019,-1.8037,-1.8012,-1.8008,-1.8001,-1.7976,-1.7972,-1.7987,-1.7986,-1.7952,-1.7949,-1.7946,-1.7935,-1.7931,-1.793,-1.7929,-1.7899,-1.7899,-1.7899,0,0,0,0,0,0,-1.8063,-1.8059,-1.8023,-1.8037,-1.8032,-1.8012,-1.8004,-1.8001,-1.7994,-1.7972,-1.7968,-1.7984,-1.7952,-1.7948,-1.7935,-1.7934,-1.7929,-1.7928,-1.7899,-1.7899,-1.7899,-1.7916,0,0,0,0,0,0,-1.8064,-1.806,-1.8058,-1.8037,-1.8031,-1.8014,-1.8004,-1.8,-1.7992,-1.799,-1.7969,-1.7965,-1.7951,-1.7937,-1.7933,-1.7932,-1.7927,-1.7899,-1.7899,-1.7899,-1.7915,-1.7917,-1.7918,0,0,0,0,0,-1.8066,-1.8063,-1.8058,-1.8054,-1.8029,-1.8014,-1.801,-1.7996,-1.7992,-1.7989,-1.7975,-1.7966,-1.7935,-1.7936,-1.7931,-1.793,-1.7899,-1.7899,-1.7899,-1.7915,-1.7916,-1.7918,0,0,0,0,0,0,-1.8084,-1.8061,-1.8054,-1.8045,-1.8032,-1.801,-1.8007,-1.7998,-1.7985,-1.7983,-1.7965,-1.796,-1.7949,-1.7938,-1.7939,-1.7921,-1.7916,-1.7915,-1.7929,-1.793,-1.7931,-1.7934,-1.7926,0,0,0,0,0,-1.8087,-1.8078,-1.8057,-1.8051,-1.8045,-1.8027,-1.802,-1.801,-1.7995,-1.7989,-1.7974,-1.7959,-1.7946,-1.7937,-1.7924,-1.7914,-1.7908,-1.791,-1.7911,-1.7912,-1.7912,-1.7904,-1.7905,-1.7899,-1.7899,-1.7899,0,0,-1.8093,-1.8079,-1.8074,-1.8054,-1.8043,-1.8033,-1.8022,-1.8012,-1.8004,-1.7987,-1.7974,-1.7962,-1.7944,-1.7932,-1.7926,-1.7923,-1.7912,-1.7912,-1.7913,-1.7912,-1.7904,-1.7905,-1.7905,-1.79,-1.79,-1.79,0,0,-1.8098,-1.8087,-1.8081,-1.8069,-1.8052,-1.804,-1.8039,-1.8019,-1.801,-1.7997,-1.7984,-1.7973,-1.7951,-1.7938,-1.7929,-1.7929,-1.7919,-1.7925,-1.7931,-1.7924,-1.7924,-1.7924,-1.7923,-1.7923,-1.7924,-1.7924,-1.7924,0,-1.8107,-1.8093,-1.8078,-1.8069,-1.806,-1.8045,-1.8037,-1.8026,-1.8005,-1.7999,-1.7996,-1.7967,-1.7954,-1.7938,-1.7938,-1.7931,-1.7928,-1.7927,-1.7925,-1.7925,-1.7925,-1.7924,-1.7924,-1.7925,-1.7925,-1.7925,-1.7925,0,-1.8104,-1.8094,-1.8091,-1.8072,-1.8062,-1.8054,-1.8037,-1.8029,-1.8019,-1.8007,-1.7993,-1.7977,-1.7959,-1.7955,-1.7945,-1.7937,-1.7936,-1.7929,-1.7923,-1.7927,-1.7926,-1.7925,-1.7926,-1.7926,-1.7926,-1.7926,0,0,-1.8121,-1.8093,-1.8092,-1.8083,-1.8063,-1.8054,-1.8044,-1.8028,-1.8021,-1.8007,-1.7997,-1.7979,-1.7972,-1.7961,-1.795,-1.7944,-1.7944,-1.7938,-1.7937,-1.7939,-1.7933,-1.7938,-1.7938,-1.7937,-1.7937,-1.7937,-1.7934,0,-1.8123,-1.8106,-1.8092,-1.8079,-1.8069,-1.8054,-1.8045,-1.8031,-1.8019,-1.8007,-1.7994,-1.7981,-1.7974,-1.7967,-1.796,-1.7945,-1.7942,-1.7945,-1.7927,-1.7926,-1.7932,-1.7937,-1.7943,-1.7941,-1.7934,-1.7934,-1.7933,0,-1.8123,-1.811,-1.8097,-1.8077,-1.8072,-1.8065,-1.8048,-1.8038,-1.8021,-1.8013,-1.8001,-1.7989,-1.7976,-1.7971,-1.7953,-1.7955,-1.7947,-1.7938,-1.7937,-1.7935,-1.793,-1.7934,-1.794,-1.794,-1.7933,-1.7933,-1.7933,0,-1.8135,-1.8115,-1.8104,-1.8096,-1.8073,-1.8068,-1.8058,-1.8041,-1.8032,-1.8017,-1.8011,-1.7994,-1.7985,-1.7972,-1.7955,-1.7953,-1.7938,-1.7932,-1.793,-1.793,-1.7927,-1.7928,-1.7932,-1.7922,-1.7922,-1.7922,-1.7922,0,-1.8139,-1.8131,-1.8109,-1.8102,-1.8093,-1.8076,-1.8067,-1.8055,-1.804,-1.803,-1.8015,-1.8006,-1.7985,-1.7972,-1.7959,-1.7945,-1.7941,-1.7933,-1.7929,-1.7934,-1.7935,-1.7928,-1.7927,-1.7922,-1.7922,-1.7922,-1.7922,0,-1.8151,-1.8136,-1.8123,-1.8102,-1.8097,-1.8091,-1.8072,-1.8064,-1.8051,-1.8038,-1.8034,-1.8014,-1.7998,-1.798,-1.7959,-1.7949,-1.7936,-1.7932,-1.7943,-1.7941,-1.7939,-1.7939,-1.7939,-1.7937,-1.7929,-1.7929,-1.793,0,-1.8155,-1.8148,-1.8127,-1.8119,-1.811,-1.8098,-1.8089,-1.8072,-1.8063,-1.8042,-1.8037,-1.802,-1.8006,-1.7981,-1.7964,-1.7946,-1.7941,-1.7942,-1.7938,-1.7943,-1.794,-1.794,-1.7939,-1.7943,-1.7943,-1.7943,-1.7943,0,-1.8162,-1.8154,-1.8142,-1.8127,-1.8117,-1.8104,-1.809,-1.8085,-1.8065,-1.8055,-1.8039,-1.8028,-1.8006,-1.7989,-1.797,-1.7958,-1.7947,-1.7944,-1.7943,-1.7947,-1.7954,-1.795,-1.7945,-1.7944,-1.7944,-1.7944,-1.7944,-1.7944,-1.8169,-1.8162,-1.8146,-1.8133,-1.8121,-1.8109,-1.81,-1.8086,-1.8074,-1.8055,-1.8045,-1.803,-1.8011,-1.7984,-1.7972,-1.7959,-1.7955,-1.7953,-1.7952,-1.7952,-1.7953,-1.7956,-1.7955,-1.7955,-1.7955,-1.7955,-1.7955,0,-1.8175,-1.8164,-1.8152,-1.8133,-1.8123,-1.8114,-1.8098,-1.8089,-1.8076,-1.8061,-1.8047,-1.8029,-1.8012,-1.7993,-1.7975,-1.7968,-1.7962,-1.7963,-1.7964,-1.7961,-1.7958,-1.7961,-1.7968,-1.7968,-1.7968,-1.7968,-1.7968,-1.7968,-1.8177,-1.8165,-1.8156,-1.8138,-1.8126,-1.8112,-1.8103,-1.8091,-1.8078,-1.8059,-1.8045,-1.8034,-1.8016,-1.7996,-1.798,-1.7975,-1.7969,-1.7972,-1.7965,-1.7962,-1.7961,-1.796,-1.7963,-1.797,-1.797,-1.7969,-1.7969,-1.7969]}]]